Weather History for Monroe, WI

Change the Weather History Date:

Friday, June 14, 2013

  Actual Average Record
Temperature  
Mean Temperature 66 °F -  
Max Temperature 78 °F 0 °F 89 °F (2007)
Min Temperature 55 °F - 51 °F (2012)
Cooling Degree Days 2    
Growing Degree Days 16 (Base 50)    
Moisture  
Dew Point 54 °F    
Average Humidity 64    
Maximum Humidity 98    
Minimum Humidity 38    
Precipitation  
Precipitation 0.00 in - - ()
Sea Level Pressure  
Sea Level Pressure 30.08 in    
Wind  
Wind Speed 5 mph (ESE)    
Max Wind Speed 10 mph    
Max Gust Speed 17 mph    
Visibility 10 miles    
Events      
Averages and records for this station are not official NWS values.
T = Trace of Precipitation, MM = Missing Value Source: NWS Daily Summary

Daily Weather History Graph

Daily Weather History Graph

Search for Another Location

Airport:

Trip Planner

Search our weather history database for the weather conditions in past years. The results will help you decide how hot, cold, wet, or windy it might be!

Date:

Astronomy

Jun. 14, 2013 Rise Set
Actual Time 5:19 AM CDT 8:37 PM CDT
Civil Twilight 4:45 AM CDT 9:12 PM CDT
Nautical Twilight 3:59 AM CDT 9:57 PM CDT
Astronomical Twilight 3:04 AM CDT 10:53 PM CDT
Moon 11:01 AM CDT (6/14) No Moon Set
Length of Visible Light 16h 27m
Length of Day
15h 17m
Waxing Crescent, 30% of the Moon is Illuminated
Jun 14
Waxing Crescent
Jun 16
First Quarter
Jun 23
Full
Jun 29
Last Quarter
Jul 8
New

Hourly Weather History & Observations

Time (CDT) Temp. Dew Point Humidity Pressure Visibility Wind Dir Wind Speed Gust Speed Precip Events Conditions
12:15 AM 63.5 °F 60.4 °F 90% 30.06 in 10.0 mi East 3.5 mph - N/A   Clear
12:35 AM 61.7 °F 60.4 °F 96% 30.06 in 10.0 mi East 5.8 mph - N/A   Clear
12:55 AM 61.0 °F 60.3 °F 97% 30.07 in 10.0 mi ENE 9.2 mph - N/A   Clear
1:15 AM 60.4 °F 58.1 °F 92% 30.07 in 10.0 mi East 6.9 mph - N/A   Clear
1:35 AM 59.4 °F 57.2 °F 93% 30.08 in 10.0 mi ENE 6.9 mph - N/A   Clear
1:55 AM 59.2 °F 57.2 °F 93% 30.09 in 10.0 mi East 8.1 mph - N/A   Clear
2:15 AM 58.1 °F 56.5 °F 94% 30.09 in 10.0 mi ENE 5.8 mph - N/A   Clear
2:35 AM 57.6 °F 56.3 °F 96% 30.10 in 10.0 mi ENE 5.8 mph - N/A   Clear
2:55 AM 57.0 °F 55.8 °F 96% 30.09 in 10.0 mi ENE 6.9 mph - N/A   Clear
3:15 AM 57.2 °F 55.4 °F 94% 30.10 in 10.0 mi ENE 4.6 mph - N/A   Clear
3:35 AM 56.3 °F 55.4 °F 97% 30.10 in 10.0 mi NE 3.5 mph - N/A   Clear
3:55 AM 56.1 °F 55.2 °F 97% 30.08 in 10.0 mi ENE 6.9 mph - N/A   Clear
4:15 AM 55.8 °F 54.5 °F 96% 30.08 in 10.0 mi NE 5.8 mph - N/A   Clear
4:35 AM 55.6 °F 54.5 °F 96% 30.09 in 10.0 mi NE 5.8 mph - N/A   Clear
4:55 AM 55.0 °F 54.5 °F 98% 30.09 in 10.0 mi NE 4.6 mph - N/A   Clear
5:15 AM 55.8 °F 54.5 °F 96% 30.10 in 10.0 mi Calm Calm - N/A   Clear
5:35 AM 55.0 °F 54.3 °F 97% 30.10 in 10.0 mi Calm Calm - N/A   Clear
5:55 AM 56.7 °F 54.5 °F 92% 30.11 in 10.0 mi Calm Calm - N/A   Clear
6:15 AM 57.2 °F 54.7 °F 91% 30.12 in 10.0 mi Calm Calm - N/A   Clear
6:35 AM 58.1 °F 55.6 °F 91% 30.12 in 10.0 mi NNE 4.6 mph - N/A   Clear
6:55 AM 58.5 °F 55.9 °F 91% 30.13 in 10.0 mi Calm Calm - N/A   Clear
7:15 AM 60.8 °F 52.9 °F 75% 30.13 in 10.0 mi Calm Calm - N/A   Clear
7:35 AM 61.2 °F 50.0 °F 67% 30.15 in 10.0 mi Calm Calm - N/A   Clear
7:55 AM 62.8 °F 50.0 °F 63% 30.15 in 10.0 mi Calm Calm - N/A   Clear
8:15 AM 62.6 °F 50.4 °F 64% 30.15 in 10.0 mi Calm Calm - N/A   Clear
8:35 AM 62.1 °F 49.8 °F 64% 30.16 in 10.0 mi Calm Calm - N/A   Clear
8:55 AM 63.5 °F 50.4 °F 62% 30.16 in 10.0 mi Calm Calm - N/A   Clear
9:15 AM 64.8 °F 51.1 °F 61% 30.15 in 10.0 mi Calm Calm - N/A   Clear
9:35 AM 66.6 °F 51.8 °F 59% 30.13 in 10.0 mi NE 4.6 mph - N/A   Clear
9:55 AM 68.2 °F 52.3 °F 57% 30.12 in 10.0 mi East 8.1 mph - N/A   Clear
10:15 AM 67.8 °F 52.2 °F 57% 30.12 in 10.0 mi East 6.9 mph - N/A   Clear
10:35 AM 69.1 °F 53.2 °F 57% 30.12 in 10.0 mi ESE 6.9 mph - N/A   Clear
10:55 AM 70.5 °F 53.2 °F 54% 30.11 in 10.0 mi ESE 8.1 mph - N/A   Clear
11:15 AM 71.4 °F 53.4 °F 53% 30.11 in 10.0 mi ENE 10.4 mph - N/A   Clear
11:35 AM 72.3 °F 52.7 °F 50% 30.11 in 10.0 mi East 6.9 mph - N/A   Clear
11:55 AM 73.0 °F 52.9 °F 49% 30.12 in 10.0 mi SE 3.5 mph - N/A   Clear
12:15 PM 73.6 °F 52.9 °F 48% 30.13 in 10.0 mi East 4.6 mph - N/A   Clear
12:35 PM 73.8 °F 52.5 °F 47% 30.13 in 10.0 mi ESE 4.6 mph - N/A   Clear
12:55 PM 74.7 °F 51.6 °F 44% 30.12 in 10.0 mi East 4.6 mph - N/A   Clear
1:15 PM 74.8 °F 51.8 °F 44% 30.12 in 10.0 mi South 4.6 mph - N/A   Clear
1:35 PM 75.9 °F 52.9 °F 45% 30.11 in 10.0 mi SSW 3.5 mph - N/A   Scattered Clouds
1:55 PM 76.6 °F 52.2 °F 42% 30.10 in 10.0 mi South 8.1 mph - N/A   Clear
2:15 PM 77.2 °F 50.7 °F 39% 30.10 in 10.0 mi SSE 8.1 mph - N/A   Clear
2:35 PM 77.7 °F 52.2 °F 41% 30.09 in 10.0 mi South 10.4 mph 17.3 mph N/A   Clear
2:55 PM 76.8 °F 50.0 °F 39% 30.08 in 10.0 mi South 8.1 mph - N/A   Clear
3:15 PM 78.1 °F 50.4 °F 38% 30.08 in 10.0 mi South 9.2 mph - N/A   Clear
3:35 PM 78.1 °F 52.0 °F 40% 30.07 in 10.0 mi South 9.2 mph - N/A   Clear
3:55 PM 78.1 °F 52.7 °F 41% 30.05 in 10.0 mi SE 8.1 mph - N/A   Clear
4:15 PM 78.3 °F 51.6 °F 39% 30.05 in 10.0 mi SSE 6.9 mph - N/A   Scattered Clouds
4:35 PM 78.8 °F 52.0 °F 39% 30.04 in 10.0 mi SE 9.2 mph - N/A   Clear
4:55 PM 77.2 °F 50.9 °F 40% 30.04 in 10.0 mi South 9.2 mph - N/A   Clear
5:15 PM 77.9 °F 50.9 °F 39% 30.02 in 10.0 mi SSE 6.9 mph - N/A   Clear
5:35 PM 77.0 °F 50.9 °F 40% 30.02 in 10.0 mi ESE 5.8 mph - N/A   Clear
5:55 PM 76.1 °F 52.2 °F 43% 30.01 in 10.0 mi ESE 6.9 mph - N/A   Clear
6:15 PM 76.5 °F 52.3 °F 43% 30.01 in 10.0 mi SSE 8.1 mph - N/A   Clear
6:35 PM 75.6 °F 52.3 °F 44% 30.00 in 10.0 mi SE 6.9 mph - N/A   Clear
6:55 PM 75.2 °F 52.0 °F 44% 30.01 in 10.0 mi SE 6.9 mph - N/A   Clear
7:15 PM 74.8 °F 52.7 °F 46% 30.03 in 10.0 mi SSE 4.6 mph - N/A   Clear
7:35 PM 74.3 °F 53.8 °F 49% 30.03 in 10.0 mi SSE 4.6 mph - N/A   Scattered Clouds
7:55 PM 73.6 °F 54.3 °F 51% 30.03 in 10.0 mi SSE 5.8 mph - N/A   Scattered Clouds
8:15 PM 72.9 °F 54.5 °F 52% 30.02 in 10.0 mi SSE 5.8 mph - N/A   Clear
8:35 PM 72.5 °F 54.5 °F 53% 30.02 in 10.0 mi South 5.8 mph - N/A   Scattered Clouds
8:55 PM 71.4 °F 54.5 °F 55% 30.01 in 10.0 mi SSE 5.8 mph - N/A   Clear
9:15 PM 70.5 °F 55.0 °F 58% 30.01 in 10.0 mi SSE 5.8 mph - N/A   Scattered Clouds
9:35 PM 69.8 °F 55.0 °F 59% 30.00 in 10.0 mi SSE 6.9 mph - N/A   Clear
9:55 PM 69.1 °F 54.9 °F 60% 30.00 in 10.0 mi SSE 8.1 mph - N/A   Clear
10:15 PM 69.1 °F 54.1 °F 59% 30.01 in 10.0 mi SSE 8.1 mph - N/A   Clear
10:35 PM 68.2 °F 53.8 °F 60% 30.01 in 10.0 mi SE 8.1 mph - N/A   Clear
10:55 PM 68.9 °F 54.1 °F 59% 30.01 in 10.0 mi SE 8.1 mph - N/A   Clear
11:15 PM 66.9 °F 54.7 °F 65% 30.00 in 10.0 mi ESE 9.2 mph - N/A   Clear
11:35 PM 66.2 °F 53.6 °F 64% 30.00 in 10.0 mi ESE 10.4 mph - N/A   Clear
11:55 PM 65.3 °F 53.2 °F 65% 30.01 in 10.0 mi ESE 5.8 mph - N/A   Clear